Location: Jodlow
(50.1500°N, 16.7500°E)
Time: 04:54:59
(UTC+02:00)

O/OREOS (USA 219) - Visible Passes

Search period start: 29 March 2023 00:00
Search period end: 08 April 2023 00:00
Orbit: 621 x 646 km, 72.0° (Epoch: 22 May)

Date Brightness Start Highest point End Pass type
(mag) Time Alt. Az. Time Alt. Az. Time Alt. Az.
29 Mar ? 04:49:48 10° SE 04:51:54 13° E 04:54:00 10° ENE visible
30 Mar ? 05:09:48 10° SSE 05:13:35 26° ESE 05:17:22 10° NE visible
31 Mar ? 05:30:59 10° S 05:35:25 51° ESE 05:39:52 10° NE visible
01 Apr ? 04:16:11 10° SE 04:18:39 14° E 04:21:07 10° ENE visible
01 Apr ? 05:52:51 10° SSW 05:57:26 80° WNW 06:02:01 10° NNE visible
02 Apr ? 04:36:27 10° SSE 04:40:21 28° ESE 04:44:15 10° NE visible
03 Apr ? 04:57:44 10° S 05:02:13 57° ESE 05:06:42 10° NE visible
04 Apr ? 03:42:39 10° SE 03:45:24 16° E 03:48:09 10° ENE visible
04 Apr ? 05:19:41 10° SSW 05:24:15 73° WNW 05:28:49 10° NNE visible
05 Apr ? 04:04:10 16° SSE 04:07:07 31° ESE 04:11:08 10° NE visible
05 Apr ? 05:42:10 10° WSW 05:46:27 38° NW 05:50:44 10° NNE visible
06 Apr ? 04:26:11 22° S 04:29:00 63° ESE 04:33:31 10° NNE visible
07 Apr ? 03:10:39 15° SE 03:12:09 17° E 03:15:09 10° ENE visible
07 Apr ? 04:48:06 21° SW 04:51:04 67° WNW 04:55:37 10° NNE visible
